Weather History for Lander, WY

Change the Weather History Date:

Friday, March 9, 2012

  Actual Average Record
Temperature  
Mean Temperature 40 °F 33 °F  
Max Temperature 56 °F 45 °F 72 °F (1989)
Min Temperature 23 °F 22 °F -8 °F (1912)
Degree Days  
Heating Degree Days 25 32  
Month to date heating degree days 283 299  
Since 1 July heating degree days 5626 6003  
Cooling Degree Days 0 0  
Month to date cooling degree days 0 0  
Year to date cooling degree days 0 0  
Moisture  
Dew Point 22 °F    
Average Humidity 48    
Maximum Humidity 69    
Minimum Humidity 26    
Precipitation  
Precipitation 0.00 in 0.03 in 0.79 in (1968)
Month to date precipitation 0.36 0.25  
Year to date precipitation 1.67 1.24  
Snow  
Snow 0.00 in 0.50 in - ()
Month to date snowfall 7.5 3.8  
Since 1 July snowfall 59.2 57.4  
Snow Depth 1.00 in    
Sea Level Pressure  
Sea Level Pressure 30.30 in    
Wind  
Wind Speed 2 mph (West)    
Max Wind Speed 10 mph    
Max Gust Speed 13 mph    
Visibility 10 miles    
Events      
T = Trace of Precipitation, MM = Missing Value Source: NWS Daily Summary

Daily Weather History Graph

Daily Weather History Graph

Search for Another Location

Airport:

Trip Planner

Search our weather history database for the weather conditions in past years. The results will help you decide how hot, cold, wet, or windy it might be!

Date:

Astronomy

Mar. 09, 2012 Rise Set
Actual Time 6:36 AM MST 6:14 PM MST
Civil Twilight 6:08 AM MST 6:43 PM MST
Nautical Twilight 5:35 AM MST 7:15 PM MST
Astronomical Twilight 5:02 AM MST 7:49 PM MST
Moon 8:23 PM MST (3/9) 6:53 AM MST (3/9)
Length of Visible Light 12h 34m
Length of Day
11h 38m
Full, 97% of the Moon is Illuminated
Mar 9
Full
Mar 14
Last Quarter
Mar 22
New
Mar 30
First Quarter
Apr 6
Full

Hourly Weather History & Observations

Time (MST) Temp. Windchill Dew Point Humidity Pressure Visibility Wind Dir Wind Speed Gust Speed Precip Events Conditions
12:53 AM 30.0 °F - 19.9 °F 66% 30.48 in 10.0 mi Calm Calm - N/A   Clear
1:53 AM 28.9 °F 25.2 °F 19.9 °F 69% 30.47 in 10.0 mi ESE 3.5 mph - N/A   Clear
2:53 AM 28.0 °F - 18.0 °F 66% 30.44 in 10.0 mi Calm Calm - N/A   Clear
3:53 AM 28.0 °F 22.8 °F 18.0 °F 66% 30.43 in 10.0 mi NNW 4.6 mph - N/A   Clear
4:53 AM 28.9 °F - 16.0 °F 58% 30.41 in 10.0 mi Calm Calm - N/A   Clear
5:53 AM 26.1 °F 21.9 °F 18.0 °F 71% 30.45 in 10.0 mi WNW 3.5 mph - N/A   Clear
6:53 AM 28.0 °F - 18.0 °F 66% 30.44 in 10.0 mi Calm Calm - N/A   Clear
7:53 AM 30.9 °F - 19.0 °F 61% 30.44 in 10.0 mi Calm Calm - N/A   Clear
8:53 AM 32.0 °F - 21.9 °F 66% 30.45 in 10.0 mi Calm Calm - N/A   Clear
9:53 AM 39.0 °F - 23.0 °F 53% 30.41 in 10.0 mi Calm Calm - N/A   Clear
10:53 AM 42.1 °F - 25.0 °F 51% 30.39 in 10.0 mi Calm Calm - N/A   Clear
11:53 AM 45.0 °F 43.5 °F 25.0 °F 46% 30.34 in 10.0 mi East 3.5 mph - N/A   Clear
12:53 PM 50.0 °F - 25.0 °F 38% 30.28 in 10.0 mi Calm Calm - N/A   Clear
1:53 PM 52.0 °F - 21.9 °F 31% 30.24 in 10.0 mi Variable 4.6 mph - N/A   Clear
2:53 PM 54.0 °F - 23.0 °F 30% 30.21 in 10.0 mi Calm Calm - N/A   Clear
3:53 PM 55.0 °F - 21.9 °F 28% 30.18 in 10.0 mi Calm Calm - N/A   Clear
4:53 PM 54.0 °F - 26.1 °F 34% 30.14 in 10.0 mi South 3.5 mph - N/A   Clear
5:53 PM 50.0 °F - 28.9 °F 44% 30.16 in 10.0 mi Calm Calm - N/A   Clear
6:53 PM 45.0 °F 39.7 °F 23.0 °F 42% 30.16 in 10.0 mi WSW 10.4 mph - N/A   Clear
7:53 PM 43.0 °F - 27.0 °F 53% 30.16 in 10.0 mi Calm Calm - N/A   Clear
8:53 PM 43.0 °F 41.3 °F 16.0 °F 34% 30.14 in 10.0 mi Variable 3.5 mph - N/A   Clear
9:53 PM 39.9 °F 35.8 °F 19.0 °F 43% 30.12 in 10.0 mi WNW 5.8 mph - N/A   Clear
10:53 PM 37.0 °F - 24.1 °F 59% 30.10 in 10.0 mi Calm Calm - N/A   Clear
11:53 PM 37.0 °F - 23.0 °F 57% 30.08 in 10.0 mi Calm Calm - N/A   Clear